Home   Weather   Okayama   Past weeks

Flag for Japan Past Weather in Okayama, Japan — Yesterday and Last 2 Weeks

Now
73 °F

Broken clouds.


Feels Like: 77 °F
Forecast: 44 / 70 °F
Wind: 13 mph from North

Location: Okayama Airport

Current Time: May 1, 2017 at 3:32:19 pm

Latest Report: May 1, 2017 at 3:00 pm


Visibility: N/A

Pressure: 29.95 "Hg

Humidity: 47%

Dew Point: 52 °F

Location of OkayamaLocation

Past Weather in Okayama — Graph

°F

Okayama Temperature Yesterday

Maximum temperature yesterday: 77 °F (at 2:00 pm)
Minimum temperature yesterday: 48 °F (at 6:15 am)
Average temperature yesterday: 68 °F

High & Low Weather Summary for the Past Weeks

 TemperatureHumidityPressure
High77 °F (Apr 30, 2:00 pm)100% (Apr 17, 10:00 am)30.24 "Hg (Apr 17, 10:00 am)
Low43 °F (Apr 23, 6:15 am)23% (Apr 23, 2:00 pm)29.39 "Hg (Apr 17, 9:00 pm)
Average61 °F58%29.84 "Hg
* Reported Apr 16 2:00 pm — May 1 2:00 pm, Okayama, Weather by CustomWeather, © 2017

Note: Actual official high and low records may vary slightly from our data, if they occured in-between our weather recording intervals... More about our weather records

Advertising

Okayama Weather History for the Previous 24 Hours

Scroll right to see more
 ConditionsComfort  
Time TempWeatherWind HumidityBarometerVisibility
2:00 pm
Mon, May 1
73 °FBroken clouds.10 mph47%29.95 "HgN/A
1:00 pm73 °FScattered clouds.5 mph38%29.95 "HgN/A
12:00 pm75 °FPassing clouds.3 mph39%29.95 "HgN/A
11:00 am70 °FScattered clouds.5 mph40%29.95 "HgN/A
10:00 am68 °FPassing clouds.8 mph46%29.95 "HgN/A
9:00 am66 °FPassing clouds.10 mph49%29.95 "HgN/A
8:00 am64 °FSunny.9 mph52%29.95 "Hg10 mi
7:00 am63 °FSunny.9 mph59%29.92 "Hg10 mi
6:15 am61 °FSunny.6 mph68%29.92 "Hg10 mi
9:00 pm
Sun, Apr 30
66 °FClear.2 mph43%29.86 "Hg10 mi
8:00 pm68 °FClear.5 mph40%29.86 "Hg10 mi
7:00 pm70 °FPassing clouds.5 mph38%29.83 "HgN/A
6:00 pm72 °FPassing clouds.12 mph36%29.80 "HgN/A
5:00 pm75 °FSunny.14 mph31%29.80 "Hg10 mi
4:00 pm75 °FPassing clouds.13 mph31%29.80 "HgN/A
3:00 pm75 °FPassing clouds.14 mph31%29.80 "HgN/A
Weather by CustomWeather, © 2017

See weather overviewHow to use our weather pages